Location: Seattle
(47.6064°N, 122.3308°W)
Time: 00:42:21
(UTC-08:00)

Tiros 1 - Pass Details

Date: 03 December 2020
Orbit: 630 x 663 km, 48.4° (Epoch: 28 January)

Event Time Altitude Azimuth Distance (km) Brightness Sun altitude
Rises 18:43:04 0° 286° (WNW) 2,994 11.7 -23.4°
Reaches altitude 10° 18:45:29 10° 281° (WNW) 2,076 10.7 -23.8°
Maximum altitude 18:50:06 49° 207° (SSW) 843 7.8 -24.6°
Enters shadow 18:51:01 43° 171° (S) 923 7.8 -24.8°
Drops below altitude 10° 18:54:40 10° 133° (SE) 2,051 - -25.4°
Sets 18:57:02 0° 128° (SE) 2,954 - -25.8°
